QPF
0.02 0.01 0.01 0.01 0.01 0.02 0.02 0.02 0.03 0.02 0.03 0.04 0.03 0.03 0.02 0.02 0.02 0.02 0.01 0.03 0.03 0.03 0.03 0.04 0.05 0.09 0.12 0.13 0.10 0.10 0.09 0.08 0.05 0.04 0.05 0.05 0.05 0.06 0.06 0.06 0.07 0.07 0.05
0.03 0.02 0.01 0.01 0.01 0.02 0.02 0.01 0.03 0.02 0.02 0.02 0.03 0.03 0.03 0.02 0.01 0.01 0.02 0.03 0.03 0.03 0.03 0.04 0.05 0.07 0.11 0.15 0.16 0.15 0.13 0.10 0.07 0.07 0.08 0.09 0.11 0.12 0.09 0.08 0.07 0.08 0.07
0.02 0.01 0.01 0.01 0.01 0.01 0.01 0.01 0.02 0.01 0.02 0.02 0.02 0.03 0.04 0.04 0.04 0.04 0.04 0.03 0.03 0.03 0.03 0.03 0.04 0.05 0.07 0.13 0.15 0.18 0.19 0.16 0.12 0.08 0.08 0.09 0.09 0.11 0.11 0.07 0.05 0.05 0.04
0.02 0.01 0.01 0.01 0.01 0.00 0.01 0.01 0.01 0.01 0.02 0.02 0.01 0.02 0.04 0.04 0.04 0.04 0.03 0.03 0.03 0.02 0.02 0.02 0.02 0.03 0.05 0.09 0.11 0.15 0.20 0.20 0.17 0.10 0.08 0.09 0.07 0.07 0.08 0.07 0.06 0.05 0.04
0.01 0.01 0.01 0.01 0.00 0.00 0.00 0.00 0.01 0.01 0.01 0.01 0.01 0.03 0.03 0.04 0.04 0.05 0.04 0.03 0.03 0.01 0.01 0.01 0.02 0.03 0.04 0.05 0.05 0.10 0.16 0.21 0.21 0.17 0.12 0.10 0.09 0.08 0.08 0.08 0.07 0.05 0.04
0.00 0.01 0.01 0.01 0.01 0.01 0.00 0.00 0.01 0.00 0.00 0.01 0.02 0.02 0.04 0.04 0.05 0.06 0.06 0.05 0.03 0.03 0.02 0.01 0.02 0.03 0.04 0.04 0.05 0.06 0.08 0.11 0.14 0.16 0.15 0.12 0.11 0.12 0.09 0.08 0.08 0.07 0.04
0.00 0.01 0.01 0.01 0.01 0.01 0.01 0.00 0.01 0.01 0.01 0.01 0.01 0.01 0.03 0.04 0.04 0.05 0.05 0.05 0.04 0.05 0.04 0.04 0.04 0.04 0.03 0.03 0.05 0.05 0.05 0.05 0.06 0.08 0.08 0.09 0.09 0.10 0.09 0.09 0.07 0.08 0.05
0.00 0.00 0.01 0.01 0.01 0.01 0.00 0.00 0.02 0.01 0.01 0.01 0.01 0.02 0.02 0.03 0.03 0.04 0.04 0.03 0.03 0.03 0.04 0.04 0.06 0.06 0.04 0.03 0.06 0.05 0.05 0.06 0.06 0.04 0.06 0.06 0.06 0.07 0.08 0.09 0.09 0.09 0.08
0.00 0.00 0.01 0.02 0.02 0.01 0.00 0.00 0.01 0.01 0.01 0.00 0.01 0.01 0.01 0.02 0.03 0.03 0.02 0.01 0.02 0.02 0.02 0.03 0.05 0.05 0.05 0.05 0.05 0.06 0.05 0.05 0.04 0.04 0.04 0.05 0.05 0.04 0.04 0.07 0.08 0.08 0.08
0.00 0.00 0.01 0.02 0.01 0.01 0.00 0.00 0.01 0.01 0.01 0.00 0.01 0.01 0.01 0.01 0.03 0.02 0.01 0.01 0.02 0.03 0.02 0.02 0.04 0.05 0.05 0.05 0.05 0.06 0.06 0.05 0.05 0.05 0.05 0.04 0.04 0.03 0.03 0.05 0.04 0.05 0.06
0.00 0.00 0.00 0.01 0.01 0.01 0.00 0.00 0.01 0.01 0.00 0.01 0.00 0.01 0.01 0.01 0.01 0.01 0.01 0.01 0.02 0.02 0.02 0.03 0.03 0.04 0.05 0.05 0.06 0.05 0.06 0.05 0.04 0.03 0.04 0.03 0.04 0.05 0.04 0.04 0.03 0.04 0.05
0.00 0.00 0.00 0.01 0.01 0.01 0.00 0.00 0.00 0.00 0.00 0.00 0.00 0.01 0.02 0.01 0.01 0.02 0.02 0.02 0.03 0.03 0.03 0.04 0.04 0.04 0.04 0.05 0.04 0.04 0.05 0.05 0.05 0.05 0.05 0.05 0.05 0.05 0.04 0.05 0.04 0.04 0.06
0.00 0.00 0.00 0.00 0.01 0.01 0.01 0.01 0.00 0.00 0.01 0.01 0.00 0.01 0.02 0.02 0.02 0.02 0.02 0.03 0.03 0.04 0.04 0.05 0.04 0.03 0.03 0.03 0.03 0.03 0.03 0.03 0.03 0.04 0.04 0.04 0.06 0.05 0.05 0.06 0.05 0.05 0.05
0.00 0.00 0.01 0.02 0.02 0.03 0.03 0.02 0.00 0.00 0.00 0.01 0.02 0.02 0.01 0.01 0.01 0.02 0.02 0.02 0.02 0.03 0.04 0.04 0.04 0.03 0.03 0.02 0.02 0.02 0.03 0.02 0.02 0.02 0.03 0.03 0.05 0.05 0.04 0.05 0.05 0.05 0.05
0.00 0.00 0.00 0.00 0.02 0.03 0.03 0.01 0.01 0.01 0.02 0.02 0.02 0.01 0.01 0.01 0.01 0.02 0.03 0.02 0.02 0.03 0.03 0.04 0.05 0.04 0.03 0.03 0.04 0.04 0.04 0.04 0.03 0.03 0.03 0.03 0.03 0.04 0.03 0.03 0.04 0.06 0.05
0.00 0.01 0.00 0.00 0.01 0.01 0.01 0.01 0.01 0.01 0.01 0.01 0.01 0.01 0.01 0.01 0.01 0.02 0.02 0.02 0.03 0.03 0.03 0.04 0.05 0.05 0.04 0.04 0.04 0.04 0.05 0.04 0.04 0.05 0.04 0.03 0.02 0.01 0.02 0.02 0.03 0.04 0.05
0.00 0.00 0.00 0.00 0.00 0.01 0.01 0.01 0.01 0.00 0.00 0.00 0.00 0.01 0.01 0.01 0.02 0.01 0.02 0.02 0.02 0.03 0.04 0.04 0.05 0.05 0.05 0.04 0.02 0.02 0.03 0.03 0.03 0.04 0.03 0.02 0.02 0.02 0.01 0.02 0.01 0.02 0.02
0.00 0.00 0.01 0.01 0.01 0.00 0.00 0.00 0.00 0.00 0.00 0.01 0.01 0.01 0.01 0.01 0.02 0.03 0.03 0.02 0.02 0.02 0.03 0.03 0.03 0.03 0.03 0.02 0.01 0.01 0.02 0.02 0.02 0.02 0.03 0.03 0.03 0.03 0.03 0.03 0.03 0.02 0.01
0.00 0.01 0.01 0.01 0.01 0.00 0.00 0.00 0.00 0.00 0.00 0.00 0.01 0.01 0.01 0.01 0.02 0.02 0.02 0.02 0.02 0.02 0.02 0.03 0.03 0.03 0.03 0.02 0.01 0.01 0.01 0.02 0.02 0.03 0.03 0.03 0.04 0.04 0.04 0.05 0.06 0.05 0.03
0.01 0.01 0.01 0.01 0.01 0.00 0.01 0.01 0.01 0.01 0.01 0.01 0.01 0.02 0.02 0.02 0.02 0.02 0.02 0.02 0.02 0.02 0.02 0.03 0.03 0.03 0.02 0.02 0.01 0.02 0.02 0.04 0.04 0.05 0.04 0.04 0.05 0.05 0.06 0.07 0.08 0.07 0.06
0.02 0.01 0.01 0.02 0.01 0.01 0.01 0.01 0.01 0.01 0.02 0.02 0.04 0.03 0.02 0.02 0.02 0.02 0.01 0.02 0.02 0.02 0.03 0.02 0.02 0.03 0.03 0.03 0.02 0.03 0.04 0.05 0.06 0.06 0.05 0.05 0.06 0.07 0.07 0.06 0.05 0.04 0.05
0.02 0.01 0.02 0.03 0.02 0.01 0.01 0.01 0.01 0.02 0.02 0.03 0.04 0.05 0.04 0.03 0.02 0.02 0.02 0.02 0.02 0.02 0.02 0.02 0.02 0.03 0.04 0.04 0.04 0.04 0.04 0.04 0.05 0.06 0.06 0.07 0.07 0.07 0.06 0.05 0.04 0.03 0.04
0.03 0.02 0.02 0.03 0.03 0.01 0.01 0.02 0.02 0.02 0.02 0.03 0.04 0.05 0.05 0.05 0.05 0.05 0.04 0.03 0.03 0.02 0.01 0.02 0.02 0.02 0.02 0.03 0.04 0.04 0.04 0.05 0.06 0.07 0.07 0.07 0.07 0.07 0.05 0.04 0.04 0.03 0.03
0.02 0.02 0.02 0.02 0.03 0.03 0.02 0.02 0.02 0.03 0.03 0.03 0.04 0.05 0.05 0.06 0.08 0.08 0.08 0.05 0.03 0.03 0.04 0.04 0.03 0.03 0.04 0.04 0.04 0.02 0.02 0.02 0.02 0.03 0.03 0.03 0.04 0.03 0.03 0.02 0.02 0.02 0.02
0.02 0.02 0.02 0.02 0.03 0.03 0.04 0.04 0.04 0.03 0.04 0.04 0.04 0.05 0.05 0.06 0.06 0.06 0.06 0.05 0.04 0.05 0.06 0.04 0.04 0.04 0.04 0.03 0.03 0.03 0.03 0.03 0.03 0.03 0.02 0.02 0.02 0.02 0.02 0.02 0.02 0.02 0.02
0.04 0.02 0.01 0.02 0.03 0.04 0.05 0.05 0.05 0.05 0.06 0.05 0.05 0.05 0.05 0.05 0.06 0.06 0.07 0.07 0.05 0.05 0.04 0.04 0.04 0.03 0.03 0.02 0.02 0.01 0.02 0.02 0.02 0.03 0.03 0.03 0.03 0.03 0.03 0.03 0.03 0.03 0.03
MSLP
1008.93 1009.40 1009.86 1010.28 1010.64 1010.94 1011.19 1011.40 1011.58 1011.77 1011.96 1012.16 1012.37 1012.58 1012.78 1012.96 1013.12 1013.26 1013.38 1013.50 1013.62 1013.76 1013.92 1014.11 1014.30 1014.51 1014.70 1014.87 1015.02 1015.14 1015.24 1015.33 1015.41 1015.48 1015.56 1015.61 1015.65 1015.65 1015.61 1015.53 1015.42 1015.31 1015.23
1008.51 1009.05 1009.59 1010.09 1010.51 1010.86 1011.13 1011.36 1011.55 1011.74 1011.93 1012.13 1012.33 1012.52 1012.69 1012.82 1012.91 1012.98 1013.04 1013.10 1013.18 1013.31 1013.49 1013.71 1013.96 1014.23 1014.48 1014.71 1014.91 1015.06 1015.19 1015.30 1015.40 1015.48 1015.56 1015.62 1015.65 1015.63 1015.56 1015.43 1015.25 1015.06 1014.89
1007.98 1008.57 1009.19 1009.76 1010.26 1010.67 1011.00 1011.27 1011.50 1011.72 1011.94 1012.16 1012.37 1012.55 1012.69 1012.77 1012.81 1012.80 1012.78 1012.78 1012.81 1012.91 1013.08 1013.31 1013.59 1013.89 1014.19 1014.46 1014.69 1014.88 1015.03 1015.15 1015.27 1015.37 1015.47 1015.54 1015.58 1015.57 1015.49 1015.34 1015.12 1014.87 1014.62
1007.36 1007.97 1008.63 1009.27 1009.84 1010.33 1010.73 1011.07 1011.36 1011.64 1011.90 1012.16 1012.40 1012.59 1012.72 1012.78 1012.77 1012.71 1012.63 1012.56 1012.54 1012.60 1012.73 1012.95 1013.23 1013.54 1013.85 1014.14 1014.39 1014.59 1014.75 1014.89 1015.01 1015.13 1015.25 1015.35 1015.42 1015.43 1015.37 1015.22 1015.00 1014.71 1014.39
1006.68 1007.28 1007.95 1008.63 1009.26 1009.82 1010.29 1010.69 1011.06 1011.40 1011.73 1012.04 1012.32 1012.55 1012.71 1012.78 1012.76 1012.67 1012.55 1012.44 1012.37 1012.37 1012.46 1012.65 1012.90 1013.19 1013.49 1013.77 1014.01 1014.21 1014.37 1014.51 1014.63 1014.76 1014.90 1015.03 1015.13 1015.18 1015.16 1015.04 1014.83 1014.53 1014.18
1005.98 1006.53 1007.19 1007.88 1008.54 1009.14 1009.67 1010.14 1010.56 1010.97 1011.36 1011.73 1012.08 1012.36 1012.57 1012.68 1012.69 1012.61 1012.49 1012.36 1012.25 1012.21 1012.26 1012.39 1012.60 1012.85 1013.12 1013.37 1013.59 1013.77 1013.91 1014.03 1014.15 1014.28 1014.42 1014.57 1014.71 1014.80 1014.82 1014.75 1014.57 1014.29 1013.93
1005.31 1005.79 1006.41 1007.09 1007.76 1008.39 1008.95 1009.46 1009.93 1010.37 1010.81 1011.24 1011.64 1011.99 1012.26 1012.44 1012.50 1012.47 1012.38 1012.25 1012.14 1012.07 1012.07 1012.16 1012.31 1012.51 1012.73 1012.94 1013.12 1013.27 1013.39 1013.49 1013.59 1013.71 1013.85 1014.00 1014.15 1014.28 1014.35 1014.32 1014.19 1013.95 1013.61
1004.74 1005.14 1005.72 1006.38 1007.04 1007.67 1008.25 1008.76 1009.24 1009.70 1010.16 1010.61 1011.06 1011.46 1011.79 1012.04 1012.18 1012.22 1012.17 1012.08 1011.98 1011.90 1011.87 1011.91 1012.01 1012.16 1012.32 1012.49 1012.63 1012.75 1012.84 1012.91 1012.99 1013.08 1013.20 1013.35 1013.51 1013.65 1013.76 1013.78 1013.71 1013.52 1013.23
1004.35 1004.70 1005.24 1005.87 1006.52 1007.14 1007.69 1008.19 1008.64 1009.08 1009.51 1009.95 1010.40 1010.83 1011.21 1011.52 1011.73 1011.85 1011.87 1011.83 1011.76 1011.68 1011.64 1011.64 1011.69 1011.78 1011.90 1012.03 1012.14 1012.23 1012.30 1012.35 1012.40 1012.46 1012.56 1012.68 1012.82 1012.97 1013.09 1013.16 1013.14 1013.02 1012.79
1004.23 1004.56 1005.08 1005.69 1006.32 1006.91 1007.43 1007.87 1008.26 1008.62 1008.99 1009.38 1009.79 1010.20 1010.61 1010.96 1011.23 1011.41 1011.50 1011.52 1011.48 1011.42 1011.36 1011.34 1011.35 1011.41 1011.49 1011.58 1011.67 1011.75 1011.80 1011.83 1011.86 1011.89 1011.95 1012.04 1012.15 1012.29 1012.41 1012.50 1012.53 1012.47 1012.31
1004.46 1004.80 1005.32 1005.92 1006.53 1007.07 1007.52 1007.88 1008.17 1008.42 1008.68 1008.97 1009.30 1009.67 1010.06 1010.42 1010.73 1010.97 1011.12 1011.19 1011.19 1011.14 1011.08 1011.04 1011.03 1011.05 1011.10 1011.17 1011.25 1011.32 1011.36 1011.39 1011.40 1011.41 1011.43 1011.47 1011.54 1011.64 1011.75 1011.85 1011.91 1011.91 1011.82
1005.05 1005.42 1005.95 1006.54 1007.10 1007.58 1007.95 1008.20 1008.36 1008.47 1008.59 1008.76 1008.98 1009.28 1009.62 1009.97 1010.31 1010.58 1010.78 1010.89 1010.92 1010.90 1010.84 1010.78 1010.74 1010.73 1010.76 1010.82 1010.88 1010.95 1010.99 1011.02 1011.02 1011.00 1010.99 1010.98 1011.00 1011.05 1011.13 1011.22 1011.29 1011.33 1011.31
1005.99 1006.38 1006.90 1007.45 1007.95 1008.35 1008.60 1008.71 1008.73 1008.69 1008.66 1008.69 1008.80 1009.00 1009.29 1009.62 1009.97 1010.27 1010.51 1010.66 1010.72 1010.71 1010.65 1010.58 1010.51 1010.47 1010.47 1010.50 1010.56 1010.62 1010.67 1010.69 1010.68 1010.64 1010.59 1010.54 1010.51 1010.51 1010.54 1010.60 1010.67 1010.73 1010.75
1007.16 1007.55 1008.03 1008.51 1008.91 1009.18 1009.30 1009.27 1009.13 1008.94 1008.77 1008.66 1008.67 1008.79 1009.03 1009.35 1009.70 1010.03 1010.31 1010.50 1010.59 1010.59 1010.53 1010.43 1010.33 1010.25 1010.21 1010.21 1010.24 1010.29 1010.33 1010.35 1010.33 1010.28 1010.20 1010.11 1010.03 1009.97 1009.95 1009.97 1010.01 1010.08 1010.13
1008.45 1008.78 1009.17 1009.53 1009.79 1009.91 1009.87 1009.69 1009.40 1009.08 1008.78 1008.57 1008.49 1008.56 1008.77 1009.09 1009.46 1009.83 1010.14 1010.37 1010.49 1010.50 1010.43 1010.30 1010.16 1010.03 1009.94 1009.89 1009.89 1009.91 1009.93 1009.94 1009.91 1009.85 1009.75 1009.63 1009.50 1009.39 1009.32 1009.30 1009.32 1009.37 1009.43
1009.69 1009.91 1010.15 1010.34 1010.43 1010.38 1010.18 1009.85 1009.43 1008.99 1008.60 1008.32 1008.20 1008.25 1008.46 1008.79 1009.19 1009.60 1009.96 1010.22 1010.37 1010.39 1010.30 1010.14 1009.95 1009.77 1009.61 1009.51 1009.45 1009.43 1009.43 1009.42 1009.38 1009.31 1009.20 1009.05 1008.90 1008.76 1008.65 1008.58 1008.57 1008.59 1008.65
1010.74 1010.80 1010.86 1010.86 1010.75 1010.52 1010.15 1009.68 1009.16 1008.64 1008.20 1007.90 1007.76 1007.82 1008.05 1008.42 1008.87 1009.32 1009.72 1010.01 1010.18 1010.20 1010.10 1009.90 1009.66 1009.41 1009.19 1009.02 1008.91 1008.84 1008.80 1008.77 1008.73 1008.65 1008.54 1008.39 1008.23 1008.07 1007.94 1007.84 1007.79 1007.78 1007.82
1011.50 1011.38 1011.24 1011.03 1010.73 1010.32 1009.82 1009.25 1008.65 1008.09 1007.64 1007.34 1007.23 1007.31 1007.58 1007.98 1008.46 1008.95 1009.38 1009.70 1009.87 1009.89 1009.77 1009.54 1009.25 1008.95 1008.66 1008.43 1008.26 1008.14 1008.07 1008.03 1007.98 1007.91 1007.81 1007.67 1007.52 1007.36 1007.22 1007.10 1007.03 1006.99 1007.00
1011.95 1011.65 1011.31 1010.91 1010.45 1009.90 1009.29 1008.65 1008.02 1007.47 1007.03 1006.76 1006.68 1006.79 1007.09 1007.51 1008.01 1008.51 1008.95 1009.26 1009.43 1009.44 1009.31 1009.05 1008.73 1008.38 1008.05 1007.76 1007.55 1007.40 1007.30 1007.24 1007.20 1007.14 1007.07 1006.96 1006.83 1006.69 1006.55 1006.43 1006.33 1006.27 1006.23
1012.08 1011.63 1011.14 1010.60 1010.02 1009.38 1008.72 1008.05 1007.43 1006.90 1006.49 1006.26 1006.21 1006.34 1006.64 1007.06 1007.54 1008.02 1008.43 1008.73 1008.88 1008.88 1008.73 1008.46 1008.12 1007.75 1007.39 1007.09 1006.84 1006.67 1006.57 1006.50 1006.47 1006.43 1006.38 1006.31 1006.21 1006.10 1005.97 1005.85 1005.74 1005.64 1005.57
1011.96 1011.40 1010.81 1010.18 1009.53 1008.87 1008.20 1007.55 1006.97 1006.48 1006.12 1005.92 1005.88 1006.01 1006.28 1006.66 1007.08 1007.50 1007.86 1008.12 1008.24 1008.22 1008.07 1007.80 1007.47 1007.12 1006.77 1006.46 1006.22 1006.05 1005.94 1005.88 1005.85 1005.83 1005.80 1005.75 1005.68 1005.59 1005.48 1005.36 1005.24 1005.12 1005.01
1011.60 1010.99 1010.36 1009.71 1009.06 1008.41 1007.79 1007.20 1006.68 1006.25 1005.93 1005.75 1005.71 1005.80 1006.01 1006.30 1006.64 1006.97 1007.25 1007.45 1007.54 1007.51 1007.37 1007.14 1006.85 1006.53 1006.22 1005.94 1005.72 1005.56 1005.45 1005.39 1005.37 1005.35 1005.33 1005.29 1005.23 1005.15 1005.05 1004.93 1004.79 1004.66 1004.51
1011.05 1010.42 1009.79 1009.17 1008.57 1007.99 1007.45 1006.95 1006.51 1006.14 1005.86 1005.69 1005.62 1005.65 1005.77 1005.96 1006.19 1006.41 1006.61 1006.75 1006.82 1006.79 1006.68 1006.50 1006.27 1006.02 1005.77 1005.55 1005.36 1005.21 1005.11 1005.04 1005.00 1004.96 1004.93 1004.88 1004.81 1004.72 1004.61 1004.48 1004.34 1004.19 1004.03
1010.29 1009.68 1009.09 1008.53 1008.01 1007.53 1007.09 1006.69 1006.33 1006.03 1005.79 1005.61 1005.50 1005.46 1005.49 1005.57 1005.68 1005.81 1005.93 1006.02 1006.07 1006.07 1006.01 1005.91 1005.76 1005.59 1005.42 1005.25 1005.10 1004.97 1004.86 1004.77 1004.68 1004.61 1004.52 1004.43 1004.33 1004.22 1004.09 1003.95 1003.80 1003.65 1003.50
1009.31 1008.73 1008.19 1007.71 1007.29 1006.92 1006.59 1006.29 1006.03 1005.79 1005.58 1005.40 1005.25 1005.14 1005.08 1005.06 1005.08 1005.13 1005.19 1005.26 1005.32 1005.36 1005.37 1005.35 1005.29 1005.22 1005.11 1005.00 1004.87 1004.74 1004.61 1004.47 1004.33 1004.19 1004.04 1003.89 1003.74 1003.58 1003.43 1003.29 1003.15 1003.01 1002.88
1008.10 1007.54 1007.06 1006.66 1006.33 1006.07 1005.85 1005.66 1005.48 1005.31 1005.13 1004.95 1004.78 1004.63 1004.50 1004.42 1004.37 1004.37 1004.41 1004.47 1004.56 1004.65 1004.74 1004.80 1004.83 1004.83 1004.79 1004.71 1004.60 1004.45 1004.28 1004.08 1003.87 1003.64 1003.42 1003.20 1002.99 1002.80 1002.63 1002.48 1002.36 1002.27 1002.19
Thickness
5839 5838 5836 5833 5828 5823 5819 5816 5813 5811 5809 5805 5802 5799 5798 5799 5799 5798 5796 5795 5794 5793 5791 5789 5787 5786 5783 5781 5781 5779 5776 5774 5774 5769 5765 5766 5768 5766 5765 5763 5761 5760 5758
5837 5836 5835 5833 5829 5824 5820 5817 5814 5812 5810 5807 5805 5803 5802 5801 5800 5799 5797 5796 5794 5793 5792 5788 5786 5785 5782 5781 5780 5778 5774 5774 5774 5768 5761 5756 5757 5761 5765 5763 5761 5760 5759
5838 5836 5835 5833 5830 5826 5823 5820 5816 5814 5812 5810 5808 5805 5802 5801 5799 5797 5796 5796 5795 5793 5791 5790 5787 5785 5784 5780 5779 5778 5775 5771 5772 5772 5765 5755 5750 5754 5758 5761 5760 5759 5757
5845 5840 5838 5835 5833 5830 5828 5823 5818 5815 5813 5811 5808 5804 5799 5795 5797 5798 5797 5797 5796 5794 5792 5790 5788 5786 5784 5781 5779 5778 5777 5773 5768 5770 5770 5767 5763 5753 5749 5754 5757 5758 5756
5850 5844 5842 5839 5838 5836 5831 5825 5820 5816 5814 5812 5809 5804 5802 5801 5800 5800 5797 5796 5796 5795 5793 5791 5789 5786 5783 5781 5780 5779 5776 5774 5770 5768 5767 5765 5764 5760 5750 5745 5749 5752 5755
5853 5848 5846 5843 5840 5838 5833 5827 5820 5816 5814 5812 5810 5806 5802 5801 5798 5797 5795 5795 5795 5795 5793 5792 5790 5787 5784 5782 5780 5779 5776 5774 5771 5769 5767 5764 5760 5756 5753 5747 5746 5746 5750
5853 5848 5844 5840 5838 5836 5833 5828 5821 5815 5814 5812 5810 5808 5805 5802 5799 5797 5796 5794 5794 5793 5792 5793 5790 5787 5785 5783 5781 5778 5776 5774 5771 5769 5767 5766 5763 5761 5757 5751 5747 5746 5748
5854 5849 5845 5842 5839 5836 5833 5828 5822 5816 5814 5812 5809 5808 5806 5803 5801 5799 5798 5796 5795 5795 5795 5793 5791 5788 5786 5784 5781 5779 5776 5774 5771 5769 5767 5765 5765 5764 5760 5755 5748 5742 5742
5854 5850 5847 5844 5840 5837 5834 5830 5823 5818 5816 5813 5810 5807 5806 5804 5802 5801 5799 5798 5797 5796 5794 5792 5790 5788 5786 5784 5781 5778 5776 5774 5771 5770 5768 5765 5765 5764 5762 5760 5755 5746 5737
5853 5850 5847 5843 5841 5838 5835 5832 5826 5820 5817 5815 5811 5808 5806 5804 5802 5800 5798 5797 5796 5795 5793 5791 5789 5787 5785 5783 5780 5778 5776 5773 5770 5769 5767 5765 5764 5763 5762 5760 5758 5754 5746
5850 5848 5846 5842 5840 5837 5834 5829 5825 5821 5817 5815 5812 5809 5806 5804 5802 5799 5797 5796 5794 5792 5790 5789 5787 5785 5783 5782 5779 5777 5775 5771 5769 5768 5766 5764 5763 5761 5760 5759 5757 5754 5750
5848 5845 5843 5838 5835 5833 5831 5828 5824 5820 5817 5815 5812 5809 5806 5804 5801 5798 5797 5795 5793 5791 5788 5787 5785 5783 5781 5780 5777 5774 5773 5770 5767 5766 5764 5763 5762 5760 5758 5756 5754 5752 5751
5843 5840 5836 5832 5831 5829 5826 5824 5822 5820 5817 5814 5811 5808 5805 5801 5799 5796 5795 5793 5791 5789 5787 5784 5782 5780 5779 5777 5776 5773 5771 5769 5767 5765 5762 5761 5759 5757 5755 5753 5752 5751 5750
5836 5833 5829 5827 5826 5824 5822 5819 5818 5818 5816 5813 5809 5805 5802 5800 5798 5795 5793 5791 5789 5787 5784 5782 5780 5778 5777 5775 5773 5771 5768 5767 5765 5763 5761 5759 5757 5754 5753 5751 5749 5748 5746
5829 5825 5822 5820 5820 5818 5817 5815 5814 5814 5812 5807 5804 5802 5800 5798 5795 5792 5789 5788 5786 5784 5781 5779 5777 5776 5773 5772 5769 5767 5766 5763 5761 5760 5758 5757 5755 5753 5751 5749 5746 5745 5742
5821 5820 5818 5815 5813 5812 5811 5810 5810 5809 5807 5802 5800 5798 5796 5793 5790 5788 5786 5783 5781 5779 5777 5775 5773 5771 5770 5767 5764 5762 5761 5759 5758 5755 5754 5753 5751 5750 5747 5745 5743 5741 5738
5815 5813 5812 5810 5809 5809 5808 5806 5806 5805 5801 5797 5795 5793 5791 5788 5785 5784 5781 5778 5775 5774 5772 5770 5768 5765 5763 5761 5759 5756 5755 5755 5753 5752 5750 5751 5750 5747 5744 5741 5738 5737 5735
5808 5807 5807 5806 5806 5806 5804 5803 5801 5798 5795 5791 5789 5787 5784 5781 5780 5777 5775 5772 5770 5767 5765 5764 5763 5760 5757 5755 5753 5751 5750 5750 5749 5748 5747 5744 5742 5741 5737 5735 5733 5731 5730
5803 5802 5803 5803 5802 5800 5798 5795 5792 5790 5787 5784 5782 5781 5779 5776 5773 5770 5768 5767 5764 5762 5760 5759 5757 5754 5752 5749 5747 5744 5744 5743 5743 5743 5741 5739 5736 5733 5730 5728 5725 5723 5723
5796 5795 5797 5797 5794 5793 5791 5786 5784 5782 5779 5779 5777 5776 5774 5770 5767 5764 5762 5761 5759 5757 5755 5753 5753 5751 5747 5743 5740 5737 5737 5736 5736 5735 5734 5732 5729 5725 5723 5720 5718 5715 5716
5786 5787 5787 5785 5785 5785 5783 5778 5776 5774 5775 5775 5772 5770 5768 5765 5762 5759 5757 5754 5752 5750 5749 5748 5748 5746 5743 5738 5734 5730 5729 5729 5728 5728 5727 5725 5722 5718 5715 5713 5711 5710 5709
5775 5775 5774 5774 5776 5776 5773 5769 5768 5770 5770 5768 5765 5763 5761 5759 5758 5753 5750 5747 5745 5742 5741 5741 5740 5740 5738 5734 5730 5726 5723 5721 5720 5720 5720 5717 5714 5711 5708 5706 5705 5703 5701
5763 5764 5763 5763 5764 5765 5764 5759 5761 5762 5761 5759 5757 5756 5755 5754 5752 5747 5743 5741 5738 5736 5735 5733 5732 5732 5732 5728 5725 5721 5717 5714 5712 5713 5710 5708 5706 5704 5702 5700 5698 5696 5695
5753 5753 5752 5751 5752 5754 5754 5753 5754 5754 5752 5750 5749 5749 5748 5747 5744 5741 5739 5735 5733 5732 5730 5727 5726 5726 5724 5722 5718 5715 5712 5708 5706 5704 5702 5700 5699 5697 5696 5694 5693 5691 5690
5742 5742 5741 5740 5741 5743 5744 5745 5746 5745 5743 5742 5741 5741 5740 5738 5736 5735 5733 5732 5731 5729 5726 5725 5723 5720 5717 5716 5711 5708 5706 5704 5701 5697 5696 5694 5693 5691 5690 5689 5688 5686 5684
5731 5731 5731 5731 5732 5733 5734 5736 5737 5735 5733 5732 5731 5732 5733 5731 5730 5727 5725 5723 5723 5722 5720 5718 5717 5715 5713 5710 5706 5703 5700 5697 5694 5690 5690 5689 5688 5686 5684 5683 5681 5680 5677